Weather History for Savannah Hunter, GA

Change the Weather History Date:

Sunday, October 14, 2012

  Actual Average Record
Temperature  
Mean Temperature 72 °F -  
Max Temperature 84 °F 76 °F 84 °F (1997)
Min Temperature 62 °F 57 °F 41 °F (2006)
Cooling Degree Days 8    
Growing Degree Days 22 (Base 50)    
Moisture  
Dew Point 64 °F    
Average Humidity 76    
Maximum Humidity 93    
Minimum Humidity 55    
Precipitation  
Precipitation 0.00 in - - ()
Sea Level Pressure  
Sea Level Pressure 30.14 in    
Wind  
Wind Speed 4 mph (East)    
Max Wind Speed 14 mph    
Max Gust Speed -    
Visibility 10 miles    
Events      
Averages and records for this station are not official NWS values.
T = Trace of Precipitation, MM = Missing Value Source: NWS Daily Summary

Daily Weather History Graph

Daily Weather History Graph

Search for Another Location

Airport:

Trip Planner

Search our weather history database for the weather conditions in past years. The results will help you decide how hot, cold, wet, or windy it might be!

Date:

Astronomy

Oct. 14, 2012 Rise Set
Actual Time 7:27 AM EDT 6:52 PM EDT
Civil Twilight 7:03 AM EDT 7:17 PM EDT
Nautical Twilight 6:34 AM EDT 7:45 PM EDT
Astronomical Twilight 6:06 AM EDT 8:14 PM EDT
Moon 6:26 AM EDT (10/14) 6:12 PM EDT (10/14)
Length of Visible Light 12h 14m
Length of Day
11h 25m
Waning Crescent, 1% of the Moon is Illuminated
Oct 14
Waning Crescent
Oct 15
New
Oct 21
First Quarter
Oct 29
Full
Nov 6
Last Quarter

Hourly Weather History & Observations

Time (EDT) Temp. Heat Index Dew Point Humidity Pressure Visibility Wind Dir Wind Speed Gust Speed Precip Events Conditions
12:55 AM 67.3 °F - 59.9 °F 77% 30.24 in 10.0 mi NE 3.5 mph - N/A   Mostly Cloudy
1:55 AM 67.1 °F - 60.4 °F 79% 30.22 in 10.0 mi Calm Calm - N/A   Overcast
2:55 AM 66.0 °F - 60.8 °F 83% 30.20 in 10.0 mi NNE 4.6 mph - N/A   Scattered Clouds
3:55 AM 64.8 °F - 60.8 °F 87% 30.18 in 10.0 mi NE 3.5 mph - N/A   Clear
4:55 AM 64.4 °F - 61.2 °F 89% 30.17 in 10.0 mi Calm Calm - N/A   Clear
5:55 AM 63.0 °F - 60.4 °F 91% 30.17 in 10.0 mi Calm Calm - N/A   Clear
6:55 AM 62.8 °F - 60.4 °F 92% 30.17 in 10.0 mi Calm Calm - N/A   Clear
7:55 AM 62.8 °F - 60.8 °F 93% 30.18 in 10.0 mi East 3.5 mph - N/A   Scattered Clouds
8:55 AM 67.8 °F - 63.3 °F 85% 30.20 in 10.0 mi Calm Calm - N/A   Scattered Clouds
9:55 AM 73.4 °F - 65.7 °F 77% 30.20 in 10.0 mi NE 4.6 mph - N/A   Clear
10:55 AM 78.3 °F - 67.8 °F 70% 30.19 in 10.0 mi NE 3.5 mph - N/A   Clear
11:55 AM 81.5 °F 84.4 °F 68.4 °F 64% 30.18 in 10.0 mi East 11.5 mph - N/A   Partly Cloudy
12:55 PM 83.1 °F 85.9 °F 67.6 °F 59% 30.17 in 10.0 mi ESE 12.7 mph - N/A   Scattered Clouds
1:55 PM 83.5 °F 85.7 °F 66.2 °F 56% 30.14 in 10.0 mi ESE 9.2 mph - N/A   Partly Cloudy
2:55 PM 82.9 °F 84.8 °F 65.5 °F 55% 30.12 in 10.0 mi ESE 13.8 mph - N/A   Mostly Cloudy
3:55 PM 82.6 °F 84.3 °F 65.1 °F 55% 30.10 in 10.0 mi East 11.5 mph - N/A   Clear
4:55 PM 80.4 °F 82.0 °F 63.7 °F 57% 30.09 in 10.0 mi ESE 10.4 mph - N/A   Scattered Clouds
5:55 PM 78.3 °F - 63.0 °F 59% 30.08 in 10.0 mi ESE 9.2 mph - N/A   Clear
6:55 PM 75.6 °F - 64.6 °F 69% 30.07 in 10.0 mi Calm Calm - N/A   Scattered Clouds
7:55 PM 72.3 °F - 65.3 °F 78% 30.08 in 10.0 mi Calm Calm - N/A   Clear
8:55 PM 70.9 °F - 65.3 °F 82% 30.08 in 10.0 mi Calm Calm - N/A   Clear
9:55 PM 68.7 °F - 64.9 °F 88% 30.07 in 10.0 mi Calm Calm - N/A   Clear
10:55 PM 66.9 °F - 64.4 °F 92% 30.06 in 10.0 mi Calm Calm - N/A   Clear
11:55 PM 65.3 °F - 63.0 °F 92% 30.04 in 10.0 mi Calm Calm - N/A   Scattered Clouds